Hurghada, Egypt

3:40 AM EET on May 01, 2017 (GMT +0200)
Hurghada

Weather History for HEGN - October, 2013

Change the Weather History Date:

Tuesday, October 8, 2013

  Actual Average Record
Temperature  
Mean Temperature 76 °F -  
Max Temperature 88 °F 83 °F 98 °F (2014)
Min Temperature 65 °F 69 °F 65 °F (2013)
Cooling Degree Days 12    
Growing Degree Days 26 (Base 50)    
Moisture  
Dew Point 54 °F    
Average Humidity 45    
Maximum Humidity 61    
Minimum Humidity 28    
Precipitation  
Precipitation 0.00 in - - ()
Sea Level Pressure  
Sea Level Pressure 29.95 in    
Wind  
Wind Speed 12 mph ()    
Max Wind Speed 20 mph    
Max Gust Speed -    
Visibility 6.0 miles    
Events      
Averages and records for this station are not official NWS values.
T = Trace of Precipitation, MM = Missing Value Source: Averaged Metar Reports

Daily Weather History Graph

Daily Weather History Graph

Search for Another Location

Airport or City:

Trip Planner

Search our weather history database for the weather conditions in past years. The results will help you decide how hot, cold, wet, or windy it might be!

Date:

Astronomy

Oct. 08, 2013 Rise Set
Actual Time 5:41 AM EET 5:23 PM EET
Civil Twilight 5:17 AM EET 5:47 PM EET
Nautical Twilight 4:50 AM EET 6:14 PM EET
Astronomical Twilight 4:23 AM EET 6:41 PM EET
Moon 8:54 AM EET (10/8) 8:01 PM EET (10/8)
Length of Visible Light 12h 29m
Length of Day
11h 42m
Waxing Crescent, 14% of the Moon is Illuminated
Oct 8
Waxing Crescent
Oct 12
First Quarter
Oct 19
Full
Oct 27
Last Quarter
Nov 3
New

Hourly Weather History & Observations

Time (EET) Temp. Heat Index Dew Point Humidity Pressure Visibility Wind Dir Wind Speed Gust Speed Precip Events Conditions
12:00 AM 69.8 °F - 50.0 °F 49% 29.98 in - NW 11.5 mph - N/A   Clear
1:00 AM 69.8 °F - 50.0 °F 49% 29.95 in - NW 13.8 mph - N/A   Clear
2:00 AM 69 °F - 50 °F 40% 29.96 in 6 mi NW 13.8 mph - -  
2:00 AM 68.0 °F - 50.0 °F 52% 29.95 in - NW 13.8 mph - N/A   Clear
3:00 AM 68.0 °F - 50.0 °F 52% 29.95 in - NW 11.5 mph - N/A   Clear
4:00 AM 66.2 °F - 51.8 °F 60% 29.95 in - NW 11.5 mph - N/A   Clear
5:00 AM 66.2 °F - 51.8 °F 60% 29.98 in - NW 13.8 mph - N/A   Clear
6:00 AM 66.2 °F - 51.8 °F 60% 29.98 in - NW 11.5 mph - N/A   Clear
7:00 AM 68.0 °F - 51.8 °F 56% 29.98 in - NW 13.8 mph - N/A   Clear
8:00 AM 73 °F - 51 °F 36% 30.01 in 6 mi NW 16.1 mph - -  
8:00 AM 73.4 °F - 51.8 °F 47% 30.01 in - NW 16.1 mph - N/A   Clear
9:00 AM 77.0 °F - 51.8 °F 41% 30.01 in - North 19.6 mph - N/A   Clear
10:00 AM 80.6 °F 80.3 °F 53.6 °F 39% 30.01 in - North 19.6 mph - N/A   Clear
11:00 AM 84.2 °F 82.8 °F 53.6 °F 35% 29.98 in - North 18.4 mph - N/A   Clear
12:00 PM 86.0 °F 84.5 °F 55.4 °F 35% 29.95 in - North 17.3 mph - N/A   Clear
1:00 PM 86.0 °F 85.4 °F 59.0 °F 40% 29.92 in - North 19.6 mph - N/A   Clear
2:00 PM 87 °F - 59 °F 28% 29.92 in 6 mi NNE 16.1 mph - -  
2:00 PM 87.8 °F 87.1 °F 59.0 °F 38% 29.92 in - NNE 16.1 mph - N/A   Clear
3:00 PM 86.0 °F 84.9 °F 57.2 °F 37% 29.89 in - North 18.4 mph - N/A   Clear
4:00 PM 86.0 °F 85.4 °F 59.0 °F 40% 29.89 in - North 16.1 mph - N/A   Clear
5:00 PM 82.4 °F 82.9 °F 60.8 °F 48% 29.89 in - North 15.0 mph - N/A   Clear
6:00 PM 78.8 °F - 60.8 °F 54% 29.92 in - North 10.4 mph - N/A   Clear
7:00 PM 77.0 °F - 62.6 °F 61% 29.92 in - North 9.2 mph - N/A   Clear
8:00 PM 77 °F - 55 °F 36% 29.95 in 6 mi NNW 10.4 mph - -  
8:00 PM 77.0 °F - 55.4 °F 47% 29.95 in - NNW 10.4 mph - N/A   Clear
9:00 PM 73.4 °F - 51.8 °F 47% 29.95 in - Calm Calm - N/A   Clear
10:00 PM 73.4 °F - 48.2 °F 41% 29.95 in - WNW 8.1 mph - N/A   Clear
11:00 PM 73.4 °F - 46.4 °F 38% 29.92 in - WNW 8.1 mph - N/A   Clear